Weather in Oktyabrsky

Russia / Krasnoyarsk Krai     57°26′40″N   97°31′58″E
temp.,
°C
wind,
m/s
gust,
m/s
humid.,
%
clouds,
%
prec.,
mm/h
press.,
hPa
HPBL,
m
28 july, wed
wed2801:00+17wnw289796 2.2 1004240
04:00+17wnw3898100 0.1 1005401
07:00+16wnw3795100 0.2 1006370
10:00+16wnw3797100 1.7 1006386
13:00+15nw3797100 2.9 1006394
16:00+18nw5667100 0.0 1006863
19:00+17nw4672100 0.0 1006664
22:00+13wnw399564 0.0 1006301
29 july, thu
thu2901:00+13w2899100 0.7 1006280
04:00+13w389978 0.9 1006351
07:00+14wnw389660 1.8 1006500
10:00+15wnw3692100 0.9 1006686
13:00+17w456999 1.1 10061013
16:00+16wsw3682100 0.2 1008642
19:00+14w2693100 0.8 1008405
22:00+11w1298100 0.0 100941
30 july, fri
fri3001:00+10w1299100 0.0 101032
04:00+10wsw2398100 0.0 100991
07:00+12w2491100 0.0 1011245
10:00+16wnw2462100 0.0 1010717
13:00+22nw2343100 0.0 10091602
16:00+23w1340100 0.0 10091955
19:00+21sw1158100 0.0 100915
22:00+14wsw1174100 0.0 101110
31 july, sat
sat3101:00+12w118076 0.0 101211
04:00+11wnw118531 0.0 101310
07:00+16w1264100 0.0 101595
10:00+22wnw2342100 0.0 1015758
13:00+24w2233100 0.0 10152392
16:00+24nw2234100 0.0 10142332
19:00+20nnw125699 0.0 101456
22:00+16nw2263100 0.0 101533
1 august, sun
sun101:00+16n2260100 0.0 101433
04:00+15n2264100 0.0 101335
07:00+16nne1266100 0.0 101353
10:00+20nnw1351100 0.0 1012528
13:00+21n2454100 0.0 1010821
16:00+15s1297100 2.0 101174
19:00+14w1198100 4.0 101152
22:00+14nw2598100 2.6 1010194